Showing default

QIANFAN-20, 61553

Orbit data source: Space-Track

QIANFAN-20, 61553 is a Chinese payload satellite in LEO that was launched on Tue, 15 Oct 2024 UTC via a CHANG ZHENG 6A launch vehicle from the Taiyaun Space Center, China (TSC). Payload-class satellites include a variety of spacecraft equipped with specific instruments for various scientific and technological missions. These include communications satellites like Starlink; space stations such as the ISS; scientific satellites like the Hubble; Earth observation satellites from companies like Planet Labs, Umbra, and HawkEye 360; GPS; miniature CubeSats for education and research; and military/defense satellites.

Loading next visibility...
Identifier
61553, 2024-185B
Orbit
LEO
Country
Flag of CNCN / PRC
Related business
Manufacturer
GESIH/SECM
Mission
Partially operational Commercial Communications
Bus & Motor
QIANFAN, Unknown motor
Mass
267 kg wet, ~267 kg dry
Launch date (UTC)
2024-10-15 (11 months ago)
Launch vehicle
CHANG ZHENG 6A
Launch site
Taiyaun Space Center, China (TSC)
Object type
Payload
Rocket body
Debris
Shape & HBR
Box + 1 Pan, 5.0 m
Radar Cross Section
13.200 m², Large (>1 m²)

Expand to show TLE details & history
Last TLE update: 18 hours ago

TLE from 18 hours ago
0 QIANFAN-20
1 61553U 24185B   25257.54705311  .00000366  00000-0  20455-3 0  9991
2 61553  88.9753  88.4048 0003724 268.9680  91.1077 14.08702093 56931
Epoch: 2025-09-14T13:07Z
TLE epoch observation values (Epoch: 2025-09-14T13:07:45.388Z)
Latitude
-0.00004°
Longitude
-102.29881°
Altitude
866.906 km
Speed
7.419 km/s
True Right ascension
05h 53m 37s
True Declination
0° 00' 00"
Sunlit
Object was in daylight at epoch
Visualization orbit readout
Latitude
Unknown
Longitude
Unknown
Altitude
Unknown
Speed
Unknown
Apparent Right ascension
Unknown
Apparent Declination
Unknown
Sunlit
N/A
Visualization observer readout
Local Sidereal Time
23:55:39
Azimuth
Unknown
Elevation
Unknown
Doppler factor
Unknown
Orbital elements
Apogee altitude
863.48 km
Perigee altitude
858.088 km
Semi-major axis
7,238.921 km
Eccentricity
0.00037
Inclination
88.9753°
RAAN
88.4048°
Arg. of periapsis
268.968°
True anomaly
91.15037°
Mean anomaly
91.1077°
Eccentric anomaly
91.12903°
Mean motion
3.52397 °/min
Orbital period
102.16 mins
BSTAR
0.00020455
Loading maneuver chart data...
Computing Atmospheric mass density...
Loading historical data...
Loading historical data...
Loading historical data...
Loading historical data...
Loading historical data...
Loading historical data...
Loading historical data...

Documentation

Showing up to 5 results
|